www.pogodaiklimat.ru

Погода и климат >> Архив погоды >> Ирак >> Karbalaa


ПОГОДА в Karbalaa

  • Прогноз погоды в Karbalaa
  • Монитор погоды в Karbalaa
  • Климат города

АРХИВ ПОГОДЫ в Karbalaa

Время (UTC), дата Ветер
(напр.,м/с)
 
Видим.   Явления Облачность Т
(С)
Тd
(С)
f
(%)
Тe
(С)
Тes
(С)
Комфортность P
(гПа)
Po
(гПа)
Тmin
(С)
Tmax
(С)
R
(мм)
R24
(мм)
S
(см)
12 12.07 СЗ 7 10 км ясно +44.8 +9.6 13 +43 +47 опасность
перегрева
998.7 999.0
15 12.07 СЗ 7 10 км ясно +44.3 +9.7 13 +43 +43 опасность
перегрева
997.6 998.0
18 12.07 СЗ 2 10 км ясно +39.0 +8.0 15 +37 +37 очень
жарко
998.1 998.0 +45.2
21 12.07 СЗ 1 10 км ясно +36.0 +11.8 23 +36 +36 очень
жарко
998.1 998.0
00 13.07 С 1 10 км ясно +31.7 +11.8 30 +32 +32 жарко 997.4 997.0
03 13.07 С 3 10 км ясно +30.5 +13.0 34 998.2 998.0
06 13.07 СЗ 2 10 км ясно +33.6 +13.9 30 +35 +47 душно 999.0 999.0 +25.8
09 13.07 СЗ 5 10 км ясно +42.0 +13.2 18 +42 +53 опасность
перегрева
998.9 999.0
12 13.07 СЗ 6 10 км ясно +43.5 +9.0 13 +65 +70 опасность
перегрева
997.5 998.0
15 13.07 СЗ 1 10 км ясно +43.5 +7.3 11 +41 +42 опасность
перегрева
996.4 996.0
18 13.07 СЗ 1 10 км ясно +38.2 +13.8 24 +39 +39 очень
душно
997.1 997.0 +44.2
21 13.07 СЗ 1 10 км ясно +32.5 +13.9 32 +34 +34 очень
жарко
997.0 997.0
06 14.07 СЗ 2 10 км ясно +33.5 +16.7 37 +37 +49 очень
душно
998.3 998.0 +27.9
09 14.07 С 2 10 км ясно +42.4 +14.0 19 +43 +64 опасность
перегрева
997.5 998.0
21 15.07 штиль 0 10 км 3/3 840 м
[Cu hum]
+36.8 +17.2 32 +40 +40 очень
душно
997.0 997.0
09 16.07 СЗ 4 10 км ясно +41.5 +14.9 21 +42 +57 опасность
перегрева
999.1 999.0
12 16.07 СЗ 4 10 км ясно +43.2 +12.2 16 +42 +51 опасность
перегрева
997.2 997.0
15 16.07 СЗ 5 10 км ясно +41.0 +12.8 19 +41 +41 опасность
перегрева
997.0 997.0
18 16.07 СЗ 2 10 км ясно +38.4 +13.6 23 +39 +39 очень
душно
998.2 998.0 +44.0
09 17.07 СЗ 6 10 км ясно +40.5 +11.3 18 +40 +48 очень
жарко
999.2 999.0
12 17.07 С 5 10 км ясно +42.0 +15.7 22 +43 +50 опасность
перегрева
997.2 997.0
15 17.07 С 3 10 км ясно +40.5 +16.7 25 +43 +43 опасность
перегрева
996.6 997.0
18 17.07 штиль 0 10 км ясно +38.2 +15.4 26 +40 +40 очень
душно
997.5 998.0 +43.0
21 17.07 З 5 10 км ясно +34.2 +13.3 28 +35 +35 очень
жарко
997.8 998.0
03 18.07 СЗ 5 10 км ясно +29.6 +14.7 40 +32 +32 душно 998.5 999.0
06 18.07 С 10 10 км ясно +34.6 +16.4 34 +37 +38 очень
душно
999.0 999.0 +29.5
09 18.07 С 5 10 км ясно +41.8 +11.8 17 +41 +52 опасность
перегрева
997.9 998.0
12 18.07 С 5 10 км ясно +43.8 +12.3 16 +43 +50 опасность
перегрева
996.6 997.0
15 18.07 С 4 10 км ясно +43.0 +18.2 24 +46 +47 опасность
перегрева
996.2 996.0
18 18.07 С 3 10 км ясно +39.4 +13.3 21 +39 +39 очень
жарко
997.4 997.0 +44.2
21 18.07 СЗ 4 10 км ясно +35.5 +9.9 21 +34 +34 очень
жарко
997.2 997.0
03 19.07 СЗ 2 10 км ясно +31.0 +12.4 32 +32 +32 жарко 999.9 1000.0

 

Местоположение метеостанции Karbalaa (Ирак): широта 32.62 долгота 44.02 высота над уровнем моря 29 м.

В архиве по умолчанию представлена погода в Karbalaa за последнюю неделю. Архивные данные за месяц целиком и за предыдущие месяцы, начиная с января 2011 года, Вы можете получить, выбрав интересующий диапазон дат из раскрывающегося списка и нажав кнопку "Ввод!".


*Определитесь, кто Вы:
робот инопланетянин человек

Внимание! Время в таблицах - всемирное. Для получения местного времени необходимо прибавить поправку, которая в Karbalaa равна 3 ч.

Смотрите также архив погоды в соседних городах и на ближайших метеорологических станциях:

Погода в Hella (Ирак) (45 км)
Погода в Baghdad (Ирак) (71 км)
Погода в Najaf (Ирак) (77 км)
Погода в Azizyah (Ирак) (104 км)
Погода в Ramadi (Ирак) (113 км)
Погода в Diwaniya (Ирак) (115 км)
Погода в Heet (Ирак) (115 км)
Погода в Ayn Al-Tamar (Ирак) (122 км)
Погода в Al-Khalis (Ирак) (143 км)
Погода в Ubaydah Bin Al Jarrah (Ирак) (163 км)

Пояснения к столбцам:

Ветер - указаны скорость ветра в м/с - средняя за 10 мин, порывы в срок и между сроками (в фигурных скобках) и направление, откуда дует ветер: С - северный, СВ - северо-восточный, В - восточный, ЮВ - юго-восточный, Ю - южный, ЮЗ - юго-западный, З - западный, СЗ - северо-западный.
Видимость - горизонтальная дальность видимости в метрах или километрах. При видимости от 1 до 10 км при отсутствии осадков обычно наблюдается дымка, при ухудшении видимости до 1 км и менее - туман. В сухую погоду видимость может ухудшаться дымом, пылью или мглою.
Явления - указаны атмосферные явления, наблюдавшиеся в срок или в последний час перед сроком; фигурными скобками обозначены явления, наблюдавшиеся между сроками (за 1-3 часа до срока); квадратными скобками обозначены град или гололедные отложения с указанием их диаметра в мм.
Облачность - указаны через наклонную черту общая и нижняя облачность в баллах и высота нижней границы облаков в метрах; квадратными скобками обозначены формы облаков: Ci - перистые, Cs - перисто-слоистые, Cc - перисто-кучевые, Ac - высококучевые, As - высокослоистые, Sc - слоисто-кучевые, Ns - слоисто-дождевые, Cu - кучевые, Cb - кучево-дождевые. Подробнее классификацию облаков см. в Атласе облаков (PDF).
T - Температура воздуха - температура, измеренная на высоте 2 м над землей.
Td - Температура точки росы - температура, при понижении до которой содержащийся в воздухе водяной пар достигнет насыщения.
f - Относительная влажность воздуха - влажноcть воздуха, измеренная на высоте 2 м над землей.
Te - Эффективная температура - температура, которую ощущает одетый по сезону человек в тени. Характеристика душности погоды. При расчете учитывается влияние влажности воздуха и скорости ветра на теплоощущения человека.
Tes - Эффективная температура на солнце - температура, которую ощущает человек, с поправкой на солнечный нагрев. Характеристика знойности погоды. Зависит от высоты солнца над горизонтом, облачности и скорости ветра. Ночью, в пасмурную погоду, а также при ветре 12 м/с и более поправка равна нулю.
P - Атмосферное давление - приведенное к уровню моря атмосферное давление.
Po - Атмосферное давление - измеренное на уровне метеостанции атмосферное давление.
Tmin - Минимальная температура - минимум температуры воздуха на высоте 2 м над землей.
Tmax - Максимальная температура - максимум температуры воздуха на высоте 2 м над землей.
R - Количество осадков - Количество выпавших осадков за период времени, мм. При наведении курсора мыши на число - период времени, за который выпало указанное количество осадков.
R24 - Количество осадков - Количество выпавших осадков за 24 часа, мм.
S - Снежный покров - Высота снежного покрова, см. При наведении курсора мыши на число - состояние снежного покрова и степень покрытия местности в баллах.